2018-102E (43835 NORAD) Tracking and Keplerian Element Data

This shows tracking and keplerian element data for the satellite.

Feedback or suggestion? Click here.




ElementValue
Catalog43835
Name2018-102E
Epoch Orbit454
Epoch Day6.20772539
Epoch Year2019
RAAN83.445
Inclination97.6239
Eccentricity0.0015577
Argument of Perigee167.5929
Mean Anonmoly215.0792
Mean Motion15.08413791
Decay Rate9.67E-06
L11 43835U 18102E 19006.20772539 .00000967 00000-0 66128-4 0 9995
L22 43835 97.6239 83.4450 0015577 167.5929 215.0792 15.08413791 4547

Live tracking and technical data element details for 2018-102E (NORAD 43835). 2018-102E can be tracked NOW for your location showing map with azimuth and elevation plus other details from your city location.

Track the satellite on the map from your city or location and see movement details for azimuth, elevation, latitude, longitude, range, height, and movement on the map or in text.







IsCatalogInMostPopularTable: catalog: 43835, numindb: 19
Update: records affected: 1



GetName: 43835 2018-102E

Hit Count: updated at: Thu, 17 Jan 2019 15:26:51 GMT